Validators Set Info

Showing 25 of total 635644 snapshots (taken at per minute intervals)

Block Validators Total Voting Power Total Jailed Total Incoming
2020-08-30 16:06:00389 days 1 hr ago1481273 113,364,065.99825225 BNB01.1036612763 BNB
2020-08-30 16:05:00389 days 1 hr ago1481253 113,364,065.99825225 BNB01.051460856 BNB
2020-08-30 16:04:00389 days 1 hr ago1481233 113,364,065.99825225 BNB01.0035534384 BNB
2020-08-30 16:03:00389 days 1 hr ago1481213 113,364,065.99825225 BNB00.9444386421 BNB
2020-08-30 16:02:00389 days 1 hr ago1481193 113,364,065.99825225 BNB00.8977132116 BNB
2020-08-30 16:01:00389 days 2 hrs ago1481173 113,364,065.99825225 BNB00.8538328548 BNB
2020-08-30 16:00:00389 days 2 hrs ago1481153 113,364,065.99825225 BNB00.8015518449 BNB
2020-08-30 15:59:00389 days 2 hrs ago1481133 113,364,065.99825225 BNB00.7630334559 BNB
2020-08-30 15:58:00389 days 2 hrs ago1481113 113,364,065.99825225 BNB00.7200554418 BNB
2020-08-30 15:57:00389 days 2 hrs ago1481093 113,364,065.99825225 BNB00.6592012785 BNB
2020-08-30 15:56:00389 days 2 hrs ago1481073 113,364,065.99825225 BNB00.6072850197 BNB
2020-08-30 15:55:00389 days 2 hrs ago1481053 113,364,065.99825225 BNB00.5604600618 BNB
2020-08-30 15:54:00389 days 2 hrs ago1481033 113,364,065.99825225 BNB00.5045026239 BNB
2020-08-30 15:53:00389 days 2 hrs ago1481013 113,364,065.99825225 BNB00.4704472242 BNB
2020-08-30 15:52:00389 days 2 hrs ago1480993 113,364,065.99825225 BNB00.4209241023 BNB
2020-08-30 15:51:00389 days 2 hrs ago1480973 113,364,065.99825225 BNB00.3879146286 BNB
2020-08-30 15:50:00389 days 2 hrs ago1480953 113,364,065.99825225 BNB00.3381571656 BNB
2020-08-30 15:49:00389 days 2 hrs ago1480933 113,364,065.99825225 BNB00.271389258 BNB
2020-08-30 15:48:00389 days 2 hrs ago1480913 113,364,065.99825225 BNB00.2312063082 BNB
2020-08-30 15:47:00389 days 2 hrs ago1480893 113,364,065.99825225 BNB00.1855573083 BNB
2020-08-30 15:46:00389 days 2 hrs ago1480873 113,364,065.99825225 BNB00.1439448003 BNB
2020-08-30 15:45:00389 days 2 hrs ago1480853 113,364,065.99825225 BNB00.0968940063 BNB
2020-08-30 15:44:00389 days 2 hrs ago1480833 113,364,065.99825225 BNB00.0310743216 BNB
2020-08-30 15:43:00389 days 2 hrs ago1480813 113,364,065.99825225 BNB06.6134836497 BNB
2020-08-30 15:42:00389 days 2 hrs ago1480793 113,364,065.99825225 BNB06.5819807517 BNB
Show Records